Regional Weather Roundup
Issued by NWS

Home | Current Version | Previous Version | Text Only | Print | Product List | Glossary On
Versions: 1 2 3 4 5 6 7 8 9 10 11 12 13 14 15 16 17 18 19 20 21 22 23 24 25 26 27 28 29 30 31 32 33 34 35 36 37 38 39 40 41 42 43 44 45 46 47 48 49 50
240
ASUS43 KOAX 200702
RWRNE

WEATHER ROUNDUP FOR NEBRASKA
NATIONAL WEATHER SERVICE OMAHA NE
100 AM CST FRI JAN 20 2017

NOTES: SATELLITE DATA IS BEING USED TO AUGMENT CLOUD COVER ABOVE
       12000 FEET.
       "FAIR" INDICATES FEW OR NO CLOUDS BELOW 12,000 FEET WITH NO
       SIGNIFICANT WEATHER AND/OR OBSTRUCTIONS TO VISIBILITY.

  * THESE STATIONS DO NOT REPORT WEATHER SUCH AS RAIN...SNOW OR FOG.

NEZ001>004-019>022-054>056-200800-
NEBRASKA PANHANDLE

CITY           SKY/WX    TMP DP  RH WIND       PRES   REMARKS
SCOTTSBLUFF    CLOUDY    27  21  78 CALM      29.49F
ALLIANCE       CLOUDY    17  15  92 CALM      29.47F
CHADRON        CLOUDY    26  20  77 SW3       29.47F
KIMBALL        CLOUDY    29  26  90 W6        29.49F WCI  23
SIDNEY         CLOUDY    31  24  75 NW13      29.48F WCI  21
$$

NEZ057>060-069>072-079>082-200800-
SOUTHWEST NEBRASKA

CITY           SKY/WX    TMP DP  RH WIND       PRES   REMARKS
NORTH PLATTE   CLOUDY    38  35  89 SW9       29.53F WCI  31
IMPERIAL       FOG       31  31 100 SW7       29.51F VSB 1/4 WCI  24
LEXINGTON      CLOUDY    37  36  96 S3        29.55F FOG
MCCOOK         CLOUDY    34  34 100 N5        29.53F FOG     WCI  30
OGALLALA       FOG       31  31  99 S6        29.51F VSB 3/4 WCI  25
$$

NEZ005>010-023>029-035>040-094-200800-
NORTH CENTRAL NEBRASKA

CITY           SKY/WX    TMP DP  RH WIND       PRES   REMARKS
VALENTINE      CLOUDY    25  23  92 SW8       29.44F FOG     WCI  16
AINSWORTH      CLOUDY    34  33  99 S15       29.46F WCI  24
BROKEN BOW     CLOUDY    39  37  92 SW6       29.52F WCI  35
O`NEILL        CLOUDY    41  39  91 S13       29.50F
ORD            CLOUDY    39  36  89 S7        29.54F WCI  34
THEDFORD       CLOUDY    33  32  98 SW12G20   29.48F FOG     WCI  24
$$

NEZ041-046>049-061>064-073>077-083>087-200800-
SOUTH CENTRAL NEBRASKA

CITY           SKY/WX    TMP DP  RH WIND       PRES   REMARKS
GRAND ISLAND   FOG       37  37 100 S3        29.58S VSB 3/4
AURORA         FOG       37  37 100 SW3       29.58S VSB 1/4
HASTINGS       FOG       38  37  97 CALM      29.58F VSB 1/4
HEBRON         FOG       39  39  99 CALM      29.59S VSB 1/2
HOLDREGE       FOG       37  36  97 W3        29.55F VSB 1/4
KEARNEY *      CLOUDY    37  36  93 CALM      29.56F VSB 1/4
YORK           FOG       37  37 100 CALM      29.59R VSB 1/4
$$

NEZ011>018-030>034-042>045-200800-
NORTHEAST NEBRASKA

CITY           SKY/WX    TMP DP  RH WIND       PRES   REMARKS
NORFOLK        FOG       37  36  96 S6        29.56F VSB 1/2 WCI  32
ALBION         FOG      N/A N/A N/A S5        29.57S VSB 1
BLAIR          CLOUDY    40  39  98 CALM      29.58F FOG
FREMONT        CLOUDY    39  39 100 SE5       29.60S FOG
TEKAMAH        FOG       36  36 100 W5        29.60F VSB 1/4 WCI  32
WAYNE          CLOUDY    37  37  99 SE8       29.58S FOG     WCI  31
$$

NEZ050>053-065>068-078-088>093-200800-
SOUTHEAST NEBRASKA

CITY           SKY/WX    TMP DP  RH WIND       PRES   REMARKS
LINCOLN        CLOUDY    40  39  97 CALM      29.60S FOG
OMAHA EPPLEY   FOG       40  36  86 CALM      29.60S VSB 1
BEATRICE       CLOUDY    40  40 100 E3        29.58F FOG
FALLS CITY     FOG       41  41 100 CALM      29.59F VSB 1/4
NEBRASKA CITY  FOG       39  39 100 SE5       29.59F VSB 1/4
PLATTSMOUTH    FOG       39  37  93 CALM      29.59S VSB 1/4
$$

NEZ044-045-051>053-067-200800-
OMAHA AREA

CITY           SKY/WX    TMP DP  RH WIND       PRES   REMARKS
OMAHA EPPLEY   FOG       40  36  86 CALM      29.60S VSB 1
BLAIR          CLOUDY    40  39  98 CALM      29.58F FOG
FREMONT        CLOUDY    39  39 100 SE5       29.60S FOG
MILLARD        CLOUDY    41  40  97 CALM      29.60S FOG
PLATTSMOUTH    FOG       39  37  93 CALM      29.59S VSB 1/4
WAHOO          FOG       37  37  97 SE3       29.59S VSB 1/4
$$




USA.gov is the U.S. government's official web portal to all federal, state and local government web resources and services.